[[{"header":{"parameterUnit":"m.s-1","parameterCategory":2,"la1":30.2992,"la2":30.254,"lo1":-89.0895,"lo2":-89.0443,"dy":0.0025,"dx":0.0025,"nx":19,"ny":19,"refTime":"2026-03-22T03:00:00:Z","depth":"0","parameterNumber":2,"parameterNumberName":"U-component_of_CURRENTS"},"data":[0,0,0,0.1675,0.1679,0.1898,0.1899,0.212,0.2121,0,0,0,0,0,0,0,0,0,0,0,0.1594,0.1595,0.1675,0.1679,0.1898,0.1899,0.212,0.2122,0,0,0,0,0,0,0,0,0,0,0,0.1594,0.1595,0.1595,0.1679,0.1897,0.19,0.212,0.198,0,0,0,0,0,0,0,0,0,0,0.178,0.1709,0.1594,0.1595,0.168,0.1897,0.19,0.1975,0.1989,0.1989,0,0.1991,0,0.2041,0.2131,0.2131,0,0,0,0.1726,0.1697,0.1734,0.1595,0.1682,0.1897,0.1812,0.1984,0.1999,0.2007,0.1995,0.2004,0.2045,0.2132,0.2132,0.2219,0.2219,0,0,0.1713,0.1666,0.1723,0.1743,0.1695,0.1805,0.1818,0.1994,0.2002,0.1996,0.201,0.2048,0.2132,0.2133,0.2219,0.2219,0,0,0,0.1647,0.1657,0.1694,0.1733,0.1766,0.181,0.1826,0.1996,0.2001,0.2012,0.2051,0.2133,0.2135,0.2219,0.2219,0.2157,0,0,0,0.1642,0.1615,0.1687,0.1666,0.1762,0.1895,0.1823,0.1989,0.2011,0.205,0.2133,0.2136,0.2219,0.2219,0.2159,0.2111,0,0,0,0.1592,0.1611,0.1618,0.1662,0.1735,0.1893,0.1913,0.1997,0.2032,0.2131,0.2137,0.2219,0.2219,0.216,0.2114,0.2071,0,0,0,0.1564,0.1664,0.1616,0.1695,0.1731,0.1865,0.1913,0.2022,0.2103,0.2134,0.2219,0.2219,0.2161,0.2117,0.2073,0.1902,0.1876,0,0,0.1703,0.1679,0.1718,0.1681,0.1725,0.184,0.1935,0.2042,0.2098,0.2165,0.2169,0.2158,0.2115,0.2071,0.1892,0.1866,0,0,0,0.1768,0.1762,0.1776,0.1758,0.1829,0.1877,0.2001,0.204,0.2113,0.2136,0.2172,0.2146,0.2121,0.2024,0.2004,0.2008,0.2218,0.2218,0.2218,0.1866,0.1821,0.1832,0.1785,0.1829,0.1909,0.1972,0.2041,0.2102,0.2104,0.2107,0.2044,0.1941,0.1924,0.1932,0.2132,0.2131,0.2131,0.2131,0.1924,0.1868,0.1784,0.1791,0.1765,0.1824,0.1917,0.1963,0.2006,0.206,0.2039,0.1977,0.1897,0.1914,0.2127,0.2128,0.2128,0.2129,0.2129,0.1853,0.1835,0.1818,0.1755,0.1718,0.1763,0.1749,0.1857,0.1925,0.1924,0.1821,0.182,0.1824,0.1913,0.1912,0.1912,0.1912,0.1911,0.1911,0.1796,0.1785,0.1759,0.1719,0.1678,0.1642,0.1675,0.1684,0.1694,0.1722,0.1722,0.1787,0.1977,0.1973,0.1905,0.1906,0.1907,0.1907,0.1908,0.173,0.1749,0.1702,0.168,0.1592,0.1476,0.1519,0.1425,0.1446,0.1402,0.1492,0.162,0.1618,0.1633,0.1621,0.1466,0.1466,0.1466,0.1466,0.17,0.17,0.1643,0.1592,0.1506,0.1407,0.1202,0.1145,0.1199,0.1212,0.1318,0.1337,0.1355,0.1342,0.1364,0.1349,0.1129,0.1129,0.1129,0.1689,0.1663,0.1612,0.155,0.1456,0.1278,0.1016,0.0866,0.0966,0.1126,0.136,0.1374,0.1423,0.145,0.1453,0.1483,0.1468,0,0]},{"header":{"parameterUnit":"m.s-1","parameterCategory":2,"la1":30.2992,"la2":30.254,"lo1":-89.0895,"lo2":-89.0443,"dy":0.0025,"dx":0.0025,"nx":19,"ny":19,"refTime":"2026-03-22T03:00:00:Z","depth":"0","parameterNumber":3,"parameterNumberName":"V-component_of_CURRENTS"},"data":[0,0,0,-0.0203,-0.0203,-0.0112,-0.0111,0.0177,0.0179,0,0,0,0,0,0,0,0,0,0,0,-0.0226,-0.0226,-0.0203,-0.0202,-0.0112,-0.0111,0.0176,0.0179,0,0,0,0,0,0,0,0,0,0,0,-0.0226,-0.0226,-0.0226,-0.0202,-0.0112,-0.0111,0.0175,0.0074,0,0,0,0,0,0,0,0,0,0,-0.0031,-0.0065,-0.0226,-0.0226,-0.0202,-0.0112,-0.0111,0.0068,0.0081,0.0171,0,0.016,0,0.0159,0.0198,0.0199,0,0,0,-0.0161,-0.0076,-0.0087,-0.0226,-0.0202,-0.0112,-0.0141,0.0074,0.0089,0.0189,0.0163,0.0173,0.0164,0.02,0.0202,0.046,0.046,0,0,-0.0167,-0.016,-0.0098,-0.0079,-0.0207,-0.0144,-0.0139,0.0081,0.011,0.0164,0.0179,0.0168,0.0202,0.0204,0.0459,0.046,0,0,0,-0.0209,-0.0164,-0.0182,-0.009,-0.0097,-0.0143,-0.0136,0.0101,0.0083,0.0181,0.0172,0.0204,0.0207,0.0459,0.046,0.0469,0,0,0,-0.021,-0.0192,-0.0185,-0.0173,-0.0103,-0.0014,-0.0121,0.0069,0.0092,0.017,0.0204,0.021,0.0458,0.0459,0.0468,0.0484,0,0,0,-0.0225,-0.0192,-0.0201,-0.0175,-0.016,-0.0019,-0.0021,0.0073,0.0086,0.02,0.0211,0.0457,0.0459,0.0466,0.0481,0.0509,0,0,0,-0.0194,-0.0174,-0.02,-0.0143,-0.0161,-0.0068,-0.0023,0.0082,0.0178,0.0205,0.0458,0.0459,0.0465,0.048,0.0507,0.0478,0.0484,0,0,-0.0149,-0.0167,-0.0127,-0.015,-0.0079,-0.0076,0.0066,0.0194,0.0235,0.0403,0.0409,0.0468,0.0481,0.0509,0.0569,0.0572,0,0,0,-0.0098,-0.0085,-0.006,-0.0022,0.0021,0.0095,0.0184,0.0233,0.0362,0.0288,0.0498,0.0507,0.0523,0.0502,0.0506,0.0514,0.0467,0.0467,0.0466,-0.0064,-0.0029,0.0045,0.0086,0.0147,0.0237,0.0316,0.0402,0.0429,0.0471,0.0535,0.0594,0.0574,0.0576,0.0586,0.0554,0.0554,0.0554,0.0554,0.0016,0.0081,0.0117,0.0193,0.0248,0.0351,0.0472,0.0493,0.06,0.0584,0.0599,0.0541,0.058,0.0589,0.0555,0.0555,0.0555,0.0554,0.0554,0.0062,0.0105,0.0135,0.0243,0.0327,0.0411,0.0527,0.0593,0.0623,0.0653,0.0626,0.0625,0.0614,0.0648,0.0648,0.0649,0.0649,0.0649,0.0649,0.0114,0.0152,0.0206,0.0298,0.0351,0.0444,0.0556,0.0608,0.0649,0.0655,0.0655,0.0646,0.0624,0.0598,0.0652,0.0652,0.0651,0.0651,0.0651,0.0224,0.0202,0.0293,0.034,0.046,0.0534,0.0601,0.0651,0.0689,0.0693,0.0675,0.066,0.0658,0.0654,0.0631,0.0691,0.0691,0.0691,0.0691,0.0271,0.0277,0.0365,0.0445,0.0549,0.0593,0.0644,0.0662,0.0683,0.0687,0.0698,0.0663,0.0661,0.0657,0.0654,0.063,0.0688,0.0688,0.0688,0.0335,0.0345,0.0412,0.0474,0.0588,0.0638,0.064,0.0662,0.0694,0.0691,0.0721,0.0721,0.0671,0.0667,0.0659,0.0654,0.0614,0,0]}],[{"header":{"parameterUnit":"m.s-1","parameterCategory":2,"la1":30.2992,"la2":30.254,"lo1":-89.0895,"lo2":-89.0443,"dy":0.0025,"dx":0.0025,"nx":19,"ny":19,"refTime":"2026-03-22T03:00:00:Z","depth":"2","parameterNumber":2,"parameterNumberName":"U-component_of_CURRENTS"},"data":[0,0,0,0.0626,0.0628,0.086,0.0862,0.1413,0.1418,0,0,0,0,0,0,0,0,0,0,0,0.0669,0.0671,0.0626,0.0628,0.0859,0.0862,0.1413,0.1418,0,0,0,0,0,0,0,0,0,0,0,0.0667,0.0671,0.0674,0.0628,0.0859,0.0862,0.1411,0.1195,0,0,0,0,0,0,0,0,0,0,0.0947,0.0816,0.067,0.0674,0.0629,0.0859,0.0862,0.1182,0.1208,0.1353,0,0.1426,0,0.1349,0.1452,0.1454,0,0,0,0.0717,0.0794,0.0923,0.0675,0.063,0.0858,0.078,0.1195,0.1225,0.1388,0.1431,0.1447,0.1358,0.1456,0.1458,0.1833,0.1833,0,0,0.0704,0.0648,0.0902,0.0942,0.0743,0.0772,0.0786,0.1211,0.1231,0.1433,0.1456,0.1367,0.1459,0.1463,0.1833,0.1833,0,0,0,0.0607,0.0639,0.0753,0.0925,0.0899,0.0777,0.0793,0.1214,0.1273,0.1461,0.1374,0.1462,0.1469,0.1832,0.1833,0.1822,0,0,0,0.0604,0.0575,0.0748,0.0707,0.089,0.0988,0.0786,0.1249,0.1287,0.1371,0.1462,0.1474,0.1832,0.1833,0.1822,0.1777,0,0,0,0.0648,0.0572,0.0634,0.0706,0.0757,0.098,0.1062,0.1255,0.1231,0.1455,0.1475,0.1832,0.1833,0.1822,0.1778,0.1748,0,0,0,0.0539,0.0735,0.0635,0.0754,0.0755,0.1001,0.1058,0.1278,0.1482,0.1465,0.1832,0.1833,0.1822,0.1779,0.1749,0.1524,0.1501,0,0,0.0751,0.0757,0.0816,0.0731,0.0914,0.0971,0.116,0.1444,0.1521,0.1727,0.1735,0.1822,0.1778,0.1748,0.1557,0.1532,0,0,0,0.0853,0.0889,0.0956,0.0954,0.1102,0.1186,0.1383,0.1479,0.1664,0.1615,0.1837,0.1808,0.179,0.1657,0.1639,0.1835,0.1835,0.1835,0.1835,0.1038,0.0992,0.1092,0.1091,0.1199,0.1365,0.1493,0.162,0.1755,0.1791,0.1813,0.1794,0.1655,0.1638,0.1849,0.1849,0.1849,0.1849,0.1849,0.1252,0.1208,0.1112,0.1211,0.1222,0.1353,0.153,0.1622,0.176,0.1812,0.1796,0.1668,0.1616,0.1848,0.1848,0.1848,0.1848,0.1849,0.1849,0.1212,0.1209,0.1234,0.1228,0.1252,0.134,0.14,0.1587,0.169,0.1726,0.1584,0.1581,0.1753,0.1735,0.1735,0.1734,0.1734,0.1734,0.1734,0.1212,0.1248,0.123,0.1237,0.1223,0.1217,0.1371,0.1416,0.1473,0.152,0.1518,0.1755,0.1759,0.1746,0.1729,0.173,0.173,0.1731,0.1731,0.1199,0.1184,0.1216,0.1205,0.1175,0.1102,0.1223,0.1183,0.1243,0.1191,0.1394,0.1404,0.1372,0.1385,0.1362,0.1247,0.1247,0.1247,0.1247,0.1164,0.114,0.1238,0.1232,0.1138,0.1088,0.094,0.0888,0.0968,0.0972,0.0985,0.0973,0.0997,0.0946,0.097,0.0941,0.0716,0.0715,0.0715,0.1202,0.1235,0.1265,0.1222,0.1161,0.0987,0.0773,0.0612,0.0592,0.0704,0.0998,0.1191,0.1208,0.1232,0.1185,0.121,0.1176,0,0]},{"header":{"parameterUnit":"m.s-1","parameterCategory":2,"la1":30.2992,"la2":30.254,"lo1":-89.0895,"lo2":-89.0443,"dy":0.0025,"dx":0.0025,"nx":19,"ny":19,"refTime":"2026-03-22T03:00:00:Z","depth":"2","parameterNumber":3,"parameterNumberName":"V-component_of_CURRENTS"},"data":[0,0,0,-0.0425,-0.0429,-0.0423,-0.0422,-0.0056,-0.0053,0,0,0,0,0,0,0,0,0,0,0,-0.0367,-0.0368,-0.0425,-0.0429,-0.0423,-0.0422,-0.0057,-0.0053,0,0,0,0,0,0,0,0,0,0,0,-0.0367,-0.0368,-0.037,-0.043,-0.0424,-0.0422,-0.0058,-0.0124,0,0,0,0,0,0,0,0,0,0,-0.0162,-0.0214,-0.0368,-0.037,-0.0431,-0.0424,-0.0421,-0.013,-0.0119,0.0008,0,-0.0037,0,-0.0106,-0.0031,-0.003,0,0,0,-0.0316,-0.0223,-0.0242,-0.037,-0.0432,-0.0425,-0.0394,-0.0126,-0.0114,0.0023,-0.0033,-0.0024,-0.01,-0.0029,-0.0027,0.0269,0.0269,0,0,-0.0317,-0.0324,-0.0251,-0.0237,-0.0483,-0.0395,-0.0396,-0.0122,-0.0111,-0.0032,-0.0018,-0.0094,-0.0027,-0.0024,0.0268,0.0269,0,0,0,-0.0394,-0.0324,-0.0352,-0.0246,-0.0314,-0.0398,-0.0398,-0.0121,-0.0139,-0.0015,-0.009,-0.0025,-0.0021,0.0267,0.0268,0.0294,0,0,0,-0.0388,-0.0379,-0.0354,-0.0351,-0.0324,-0.0277,-0.0403,-0.0155,-0.0131,-0.0092,-0.0025,-0.0017,0.0266,0.0268,0.0291,0.0314,0,0,0,-0.0358,-0.0376,-0.0396,-0.0353,-0.0413,-0.0285,-0.0282,-0.0151,-0.0179,-0.003,-0.0017,0.0266,0.0267,0.0289,0.031,0.0342,0,0,0,-0.033,-0.0356,-0.0396,-0.0363,-0.0414,-0.0335,-0.0285,-0.0171,-0.0042,-0.0023,0.0266,0.0268,0.0288,0.0308,0.034,0.0271,0.0277,0,0,-0.0338,-0.0357,-0.031,-0.0348,-0.0281,-0.0324,-0.0182,-0.0008,0.0031,0.022,0.0225,0.0292,0.031,0.0342,0.0375,0.0377,0,0,0,-0.0287,-0.0275,-0.0244,-0.0214,-0.0182,-0.0139,-0.0052,0.0012,0.0171,0.0082,0.0322,0.0333,0.0351,0.0306,0.0309,0.0277,0.0276,0.0276,0.0276,-0.0334,-0.0243,-0.0158,-0.0079,-0.0032,0.0033,0.0119,0.0213,0.0251,0.0304,0.0375,0.0448,0.0401,0.0402,0.0393,0.0393,0.0394,0.0394,0.0394,-0.0257,-0.0151,-0.0072,0.003,0.0077,0.0173,0.0293,0.0323,0.0454,0.0436,0.0452,0.0362,0.0406,0.0396,0.0396,0.0396,0.0395,0.0395,0.0395,-0.0212,-0.0148,-0.008,0.0072,0.0169,0.0242,0.0375,0.0449,0.0485,0.0525,0.0471,0.0469,0.0452,0.0527,0.0527,0.0528,0.0528,0.0528,0.0528,-0.0168,-0.009,-0.002,0.011,0.0178,0.0278,0.0417,0.0476,0.0514,0.0513,0.0512,0.0493,0.0489,0.0461,0.0532,0.0531,0.0531,0.053,0.053,-0.0035,-0.0053,0.0072,0.013,0.0282,0.0369,0.0457,0.051,0.0553,0.0544,0.0504,0.0504,0.0491,0.0487,0.0461,0.0528,0.0528,0.0528,0.0528,0.0016,0.0024,0.0179,0.0275,0.0375,0.0437,0.0483,0.0465,0.0469,0.0424,0.0429,0.037,0.0372,0.035,0.0349,0.0319,0.0349,0.0349,0.0349,0.0103,0.0136,0.0238,0.0319,0.0436,0.0484,0.0467,0.0382,0.0306,0.0342,0.0406,0.0514,0.0436,0.0437,0.0407,0.0405,0.0357,0,0]}],[{"header":{"parameterUnit":"m.s-1","parameterCategory":2,"la1":30.2992,"la2":30.254,"lo1":-89.0895,"lo2":-89.0443,"dy":0.0025,"dx":0.0025,"nx":19,"ny":19,"refTime":"2026-03-22T03:00:00:Z","depth":"4","parameterNumber":2,"parameterNumberName":"U-component_of_CURRENTS"},"data":[0,0,0,-0.0637,-0.0639,-0.0781,-0.0782,-0.108,-0.1083,0,0,0,0,0,0,0,0,0,0,0,-0.0587,-0.0586,-0.0637,-0.0639,-0.0781,-0.0782,-0.108,-0.1083,0,0,0,0,0,0,0,0,0,0,0,-0.0587,-0.0587,-0.0586,-0.0639,-0.0781,-0.0782,-0.1079,-0.0957,0,0,0,0,0,0,0,0,0,0,-0.081,-0.0758,-0.0587,-0.0586,-0.0639,-0.078,-0.0783,-0.095,-0.0964,-0.1031,0,-0.101,0,-0.1032,-0.11,-0.1101,0,0,0,-0.0695,-0.0746,-0.0741,-0.0586,-0.064,-0.078,-0.0733,-0.0958,-0.0974,-0.1051,-0.1015,-0.1025,-0.1037,-0.1102,-0.1103,-0.1255,-0.1255,0,0,-0.0687,-0.0673,-0.0729,-0.0749,-0.0624,-0.0728,-0.0736,-0.0967,-0.0989,-0.1016,-0.1032,-0.1042,-0.1104,-0.1106,-0.1255,-0.1255,0,0,0,-0.0626,-0.0667,-0.0657,-0.0737,-0.0742,-0.073,-0.0741,-0.0981,-0.0962,-0.1035,-0.1045,-0.1105,-0.1108,-0.1256,-0.1255,-0.1134,0,0,0,-0.0625,-0.0627,-0.0652,-0.0654,-0.0735,-0.0854,-0.0749,-0.0947,-0.0973,-0.1044,-0.1105,-0.1111,-0.1256,-0.1255,-0.1138,-0.1132,0,0,0,-0.059,-0.0626,-0.0614,-0.0651,-0.0683,-0.085,-0.085,-0.0954,-0.0978,-0.1101,-0.1112,-0.1256,-0.1255,-0.1141,-0.1137,-0.1149,0,0,0,-0.0612,-0.0611,-0.0614,-0.064,-0.068,-0.0793,-0.0849,-0.0982,-0.1088,-0.1106,-0.1256,-0.1255,-0.1142,-0.114,-0.1151,-0.0923,0,0,0,-0.0626,-0.0614,-0.0631,-0.0635,-0.0712,-0.0781,-0.0906,-0.1057,-0.1093,-0.1199,-0.1203,-0.1136,-0.1137,-0.115,-0.0885,0,0,0,0,-0.0648,-0.0653,-0.0667,-0.0725,-0.0795,-0.0874,-0.1026,-0.1048,-0.1097,-0.1136,-0.1157,-0.1163,-0.1174,-0.1047,-0.1252,-0.1252,-0.1252,-0.1252,-0.1252,-0.0677,-0.0717,-0.078,-0.0827,-0.0888,-0.0997,-0.1043,-0.1106,-0.1123,-0.1089,-0.1075,-0.1026,-0.0883,-0.1068,-0.1067,-0.1066,-0.1066,-0.1066,-0.1065,-0.0713,-0.0755,-0.0845,-0.0906,-0.0983,-0.1066,-0.1085,-0.1062,-0.104,-0.102,-0.1035,-0.0941,-0.1054,-0.1056,-0.1058,-0.1059,-0.106,-0.1061,-0.1061,-0.0711,-0.0745,-0.083,-0.0961,-0.1024,-0.103,-0.0983,-0.0972,-0.0958,-0.0935,-0.0807,-0.0985,-0.0985,-0.0897,-0.0897,-0.0897,-0.0897,-0.0897,-0.0897,-0.0675,-0.0779,-0.0865,-0.0969,-0.0984,-0.0938,-0.0887,-0.0827,-0.0815,-0.0695,-0.088,-0.0972,-0.0977,-0.098,-0.0897,-0.0897,-0.0897,-0.0897,-0.0897,-0.0645,-0.0764,-0.0822,-0.0885,-0.0888,-0.0824,-0.0822,-0.0612,-0.057,-0.0481,-0.0604,-0.0618,-0.0666,-0.0681,-0.0675,-0.0499,-0.0495,-0.0492,0,-0.066,-0.0711,-0.0816,-0.0834,-0.0755,-0.0747,-0.0519,-0.0439,-0.0423,-0.0414,-0.0628,-0.0779,-0.0784,-0.0854,-0.0861,-0.086,0,0,0,-0.0695,-0.0713,-0.0749,-0.0791,-0.0672,-0.0491,-0.0435,-0.0315,-0.048,-0.024,-0.0411,-0.0433,-0.0662,-0.0896,-0.1009,-0.1015,-0.1027,0,0]},{"header":{"parameterUnit":"m.s-1","parameterCategory":2,"la1":30.2992,"la2":30.254,"lo1":-89.0895,"lo2":-89.0443,"dy":0.0025,"dx":0.0025,"nx":19,"ny":19,"refTime":"2026-03-22T03:00:00:Z","depth":"4","parameterNumber":3,"parameterNumberName":"V-component_of_CURRENTS"},"data":[0,0,0,0.0211,0.0212,0.0275,0.0276,0.0296,0.0296,0,0,0,0,0,0,0,0,0,0,0,0.0174,0.0174,0.0211,0.0212,0.0275,0.0276,0.0296,0.0296,0,0,0,0,0,0,0,0,0,0,0,0.0174,0.0174,0.0174,0.0212,0.0275,0.0276,0.0296,0.0267,0,0,0,0,0,0,0,0,0,0,0.0215,0.0208,0.0174,0.0173,0.0212,0.0275,0.0276,0.0266,0.0269,0.0246,0,0.0235,0,0.0264,0.0295,0.0295,0,0,0,0.0226,0.0206,0.0198,0.0173,0.0213,0.0275,0.0251,0.0268,0.0271,0.0249,0.0236,0.0238,0.0265,0.0295,0.0295,0.0268,0.0268,0,0,0.0223,0.0215,0.0196,0.0199,0.0201,0.0248,0.0252,0.0271,0.0274,0.0236,0.0239,0.0265,0.0295,0.0294,0.0269,0.0268,0,0,0,0.0203,0.0212,0.0206,0.0197,0.0212,0.025,0.0255,0.0274,0.0264,0.024,0.0265,0.0295,0.0294,0.0269,0.0269,0.0233,0,0,0,0.0202,0.0199,0.0204,0.0204,0.0211,0.0259,0.0257,0.0263,0.0267,0.0265,0.0295,0.0294,0.0269,0.0269,0.0234,0.0222,0,0,0,0.0176,0.0199,0.0191,0.0203,0.0223,0.0259,0.0253,0.0265,0.0281,0.0295,0.0294,0.0269,0.0269,0.0235,0.0224,0.0189,0,0,0,0.0187,0.0171,0.019,0.018,0.0222,0.0226,0.0254,0.0293,0.0308,0.0294,0.0269,0.0269,0.0236,0.0225,0.0191,0.0173,0,0,0,0.0171,0.0169,0.016,0.0179,0.0164,0.022,0.0218,0.0266,0.029,0.0261,0.0262,0.0234,0.0224,0.0189,0.0154,0,0,0,0,0.0159,0.0146,0.014,0.0145,0.0155,0.0163,0.0226,0.0234,0.0253,0.0293,0.0237,0.0232,0.0211,0.0206,0.0267,0.0267,0.0267,0.0267,0.0267,0.0123,0.0129,0.0108,0.0109,0.0116,0.0146,0.0146,0.017,0.0211,0.0222,0.0205,0.0159,0.0153,0.0206,0.0206,0.0206,0.0206,0.0206,0.0206,0.0083,0.0066,0.0082,0.009,0.0094,0.0118,0.0095,0.0127,0.0117,0.0165,0.0146,0.0172,0.0202,0.0203,0.0203,0.0204,0.0204,0.0204,0.0204,0.0056,0.0045,0.0091,0.0103,0.0109,0.0121,0.006,0.0087,0.01,0.0076,0.0087,0.0131,0.013,0.0085,0.0085,0.0084,0.0084,0.0084,0.0084,0.002,0.0042,0.0072,0.0096,0.0107,0.0098,0.007,0.0021,0.0031,0.0046,0.0086,0.0118,0.0122,0.0123,0.0081,0.0081,0.0082,0.0082,0.0082,-0.0014,0.0022,0.0036,0.0062,0.0028,0.0008,-0.0006,-0.0049,-0.01,-0.0123,0.0013,0.0017,0.0026,0.0032,0.0031,-0.0041,-0.0041,-0.0041,0,-0.0036,-0.0026,-0.0009,-0.0028,-0.0086,-0.008,-0.0149,-0.0186,-0.0141,-0.0082,-0.0146,0.0009,0.0013,0.0024,0.0029,0.0027,0,0,0,-0.0048,-0.0043,-0.0047,-0.0071,-0.0132,-0.0177,-0.0168,-0.0153,-0.0103,-0.0184,-0.0052,-0.0049,-0.0101,0.0071,0.0095,0.01,0.0104,0,0]}]]